EB5ETD Weather Reports


time (UTC)temp
F
wind
direction
speed
knots
gust
knots
rain 1hr
in
rain 24hr
in
rain mn
in
humidity
%
barometer
mb
20260507131504 63 42 4.3 8.7 0.00 0.00 0.00 64 1017.5
20260507131004 63 27 5.2 7.8 0.00 0.01 0.00 63 1017.6
20260507130504 63 32 3.5 8.7 0.00 0.03 0.00 63 1017.7
20260507130004 63 34 4.3 8.7 0.00 0.04 0.00 63 1017.5
20260507125504 63 45 5.2 11.3 0.00 0.06 0.00 64 1017.8
20260507125004 64 47 5.2 11.3 0.00 0.09 0.00 63 1017.8
20260507124504 65 43 4.3 10.4 0.00 0.09 0.00 61 1017.5
20260507123503 64 42 5.2 11.3 0.00 0.09 0.00 61 1017.7
20260507123004 64 35 6.1 11.3 0.00 0.09 0.00 63 1017.8
20260507122504 64 37 4.3 11.3 0.00 0.09 0.00 64 1017.8
20260507122004 64 59 5.2 10.4 0.00 0.09 0.00 65 1018.0
20260507121004 65 49 4.3 11.3 0.00 0.09 0.00 63 1018.1
20260507120504 65 47 4.3 7.8 0.00 0.09 0.00 64 1018.0
20260507120005 65 44 7.0 12.2 0.00 0.09 0.00 65 1018.2
20260507115503 64 48 5.2 11.3 0.00 0.09 0.00 66 1018.2
20260507115004 63 37 4.3 8.7 0.00 0.09 0.00 67 1018.5
20260507114504 63 44 5.2 12.2 0.00 0.09 0.00 68 1018.7
20260507114004 62 23 4.3 7.8 0.00 0.09 0.00 70 1018.9
20260507113504 62 32 6.1 12.2 0.00 0.09 0.00 71 1018.8
20260507113004 62 49 4.3 8.7 0.00 0.09 0.00 69 1018.7
20260507112004 62 49 4.3 13.0 0.00 0.09 0.00 69 1019.2
20260507111506 62 49 5.2 8.7 0.00 0.09 0.00 69 1019.1
20260507110504 64 33 5.2 8.7 0.00 0.09 0.00 68 1018.9
20260507110004 63 39 4.3 11.3 0.00 0.09 0.00 68 1019.0
20260507105504 63 37 5.2 8.7 0.00 0.09 0.00 68 1019.2
20260507104504 61 42 3.5 7.8 0.00 0.09 0.00 71 1019.6
20260507104004 61 46 5.2 8.7 0.00 0.09 0.00 72 1019.6
20260507103503 61 48 4.3 8.7 0.00 0.09 0.00 73 1019.6
20260507103003 61 347 1.7 5.2 0.00 0.09 0.00 73 1019.6
20260507102504 61 39 1.7 4.3 0.00 0.09 0.00 74 1019.8
20260507102006 60 359 1.7 6.1 0.00 0.09 0.00 74 1019.7
20260507101506 61 53 2.6 5.2 0.00 0.09 0.00 73 1019.7
20260507101004 60 105 2.6 6.1 0.00 0.09 0.00 75 1019.7
20260507100504 60 42 2.6 6.1 0.00 0.09 0.00 76 1019.8
20260507095003 59 34 4.3 7.0 0.00 0.09 0.00 77 1020.3
20260507094504 59 38 3.5 6.1 0.00 0.09 0.00 77 1020.1
20260507094004 59 42 2.6 6.1 0.00 0.09 0.00 77 1020.3
20260507093037 60 46 3.5 7.0 0.00 0.09 0.00 76 1020.1
20260507092533 59 39 3.5 7.8 0.00 0.09 0.00 77 1020.0
20260507091036 59 42 1.7 6.1 0.00 0.09 0.00 78 1020.1
20260507090532 59 57 1.7 6.1 0.00 0.09 0.00 78 1020.2
20260507090033 59 40 1.7 5.2 0.00 0.09 0.00 78 1020.3
20260507085509 59 14 1.7 4.3 0.00 0.09 0.00 80 1020.4
20260507084504 58 36 4.3 7.8 0.00 0.09 0.00 80 1020.6
20260507084004 58 47 1.7 4.3 0.00 0.09 0.00 81 1020.4
20260507083503 58 25 2.6 7.0 0.00 0.09 0.00 81 1020.6
20260507083004 58 52 1.7 4.3 0.00 0.09 0.00 81 1020.4
20260507082504 58 58 2.6 5.2 0.00 0.09 0.00 81 1020.5
20260507081504 58 56 1.7 4.3 0.00 0.09 0.00 81 1020.4
20260507081004 58 34 2.6 6.1 0.00 0.09 0.00 81 1020.5
20260507080504 58 35 2.6 6.1 0.00 0.09 0.00 82 1020.4
20260507080004 58 48 2.6 6.1 0.00 0.09 0.00 84 1020.4
20260507075504 57 50 1.7 6.1 0.00 0.09 0.00 84 1020.2
20260507075004 57 50 1.7 5.2 0.00 0.09 0.00 85 1020.1
20260507074503 57 54 2.6 6.1 0.00 0.09 0.00 86 1020.3
20260507074004 57 47 0.9 2.6 0.00 0.09 0.00 87 1020.4
20260507072504 56 60 0.9 1.7 0.00 0.09 0.00 87 1020.6
20260507072004 55 7 0.0 1.7 0.00 0.09 0.00 88 1020.9
20260507071504 55 64 0.0 1.7 0.00 0.09 0.00 88 1020.7
20260507070504 55 81 0.9 1.7 0.00 0.09 0.00 88 1020.7
20260507065503 55 141 0.9 1.7 0.00 0.09 0.00 88 1020.7
20260507065003 54 187 0.0 0.9 0.00 0.09 0.00 89 1020.5
20260507064504 54 233 0.0 0.9 0.00 0.09 0.00 89 1020.7
20260507063004 53 244 0.9 1.7 0.00 0.09 0.00 89 1020.7
20260507062504 53 231 1.7 1.7 0.00 0.09 0.00 89 1020.7
20260507062004 53 220 0.0 1.7 0.00 0.09 0.00 90 1020.7
20260507061503 53 257 0.9 1.7 0.00 0.09 0.00 90 1020.8
20260507061004 53 290 0.0 0.9 0.00 0.09 0.00 91 1020.7
20260507060504 53 291 0.0 0.9 0.00 0.09 0.00 91 1020.6
20260507060004 52 291 0.9 1.7 0.00 0.09 0.00 91 1020.9
20260507055504 52 292 0.0 0.0 0.00 0.09 0.00 92 1020.8
20260507055004 52 293 0.0 0.0 0.00 0.09 0.00 92 1020.9
20260507054504 52 294 0.0 0.0 0.00 0.09 0.00 92 1020.7
20260507054004 51 294 0.0 0.0 0.00 0.09 0.00 93 1020.7
20260507053504 51 298 0.0 0.0 0.00 0.09 0.00 93 1020.8
20260507053004 51 298 0.0 0.0 0.00 0.09 0.00 93 1020.6
20260507052004 51 298 0.0 0.0 0.00 0.09 0.00 93 1020.4
20260507051505 51 294 0.0 0.0 0.00 0.09 0.00 93 1020.6
20260507051004 51 299 0.0 0.9 0.00 0.09 0.00 93 1020.6
20260507050504 51 293 0.9 1.7 0.00 0.09 0.00 94 1020.6
20260507050005 51 294 0.9 0.9 0.00 0.09 0.00 94 1020.4
20260507045504 51 295 0.0 0.9 0.00 0.09 0.00 94 1020.5
20260507045004 51 295 0.0 0.9 0.00 0.09 0.00 94 1020.4
20260507044004 50 295 0.9 1.7 0.00 0.09 0.00 94 1020.5
20260507043004 50 25 0.0 0.9 0.00 0.09 0.00 94 1020.5
20260507042503 50 25 0.0 0.9 0.00 0.09 0.00 94 1020.6
20260507042004 50 25 0.0 0.9 0.00 0.09 0.00 94 1020.4
20260507041504 50 25 0.0 0.9 0.00 0.09 0.00 94 1020.6
20260507041004 50 25 1.7 1.7 0.00 0.09 0.00 94 1020.5
20260507040504 50 25 0.9 1.7 0.00 0.09 0.00 94 1020.3
20260507040004 50 25 0.0 0.0 0.00 0.09 0.00 94 1020.3
20260507035504 50 25 0.0 0.0 0.00 0.09 0.00 93 1020.4
20260507035004 50 25 0.0 0.0 0.00 0.09 0.00 93 1020.3
20260507034503 51 25 0.9 0.9 0.00 0.09 0.00 93 1020.3
20260507034004 51 25 0.0 1.7 0.00 0.09 0.00 93 1020.5
20260507033504 51 25 0.0 0.0 0.00 0.09 0.00 93 1020.2
20260507033003 51 25 0.0 0.0 0.00 0.09 0.00 93 1020.3
20260507032504 51 25 0.0 0.0 0.00 0.09 0.00 93 1020.3
20260507032004 51 25 0.0 0.0 0.00 0.09 0.00 93 1020.2
20260507031504 51 25 0.0 0.0 0.00 0.09 0.00 92 1020.3
20260507030504 52 25 0.0 0.0 0.00 0.09 0.00 92 1020.4
20260507030004 52 25 0.0 0.0 0.00 0.09 0.00 92 1020.4
20260507025504 52 25 0.0 0.9 0.00 0.09 0.00 92 1020.3
20260507025003 52 25 0.0 0.0 0.00 0.09 0.00 92 1020.3
20260507024004 52 25 0.0 0.9 0.00 0.09 0.00 92 1020.4
20260507023004 52 26 0.0 0.9 0.00 0.09 0.00 92 1020.4
20260507022504 52 26 0.0 0.9 0.00 0.09 0.00 92 1020.6
20260507022004 52 26 0.9 0.9 0.00 0.09 0.00 92 1020.6
20260507021504 52 26 0.0 0.0 0.00 0.09 0.00 92 1020.6
20260507020503 52 26 0.0 0.0 0.00 0.09 0.00 92 1020.6
20260507020004 52 26 0.0 0.0 0.00 0.09 0.00 92 1020.8
20260507015503 52 26 0.0 0.0 0.00 0.09 0.00 92 1020.7
20260507015004 52 26 0.0 0.0 0.00 0.09 0.00 92 1020.7
20260507014503 52 26 0.0 0.9 0.00 0.09 0.00 92 1020.6
20260507013503 52 26 0.9 1.7 0.00 0.09 0.00 92 1020.8
20260507012505 51 26 0.0 0.9 0.00 0.09 0.00 92 1020.8
20260507012004 51 26 0.0 0.0 0.00 0.09 0.00 92 1020.9
20260507011504 51 26 0.0 0.9 0.00 0.09 0.00 92 1021.1
20260507005504 51 26 0.0 0.9 0.00 0.09 0.00 93 1020.9
20260507005004 51 26 0.0 0.0 0.00 0.09 0.00 93 1020.8
20260507004504 51 26 0.0 0.9 0.00 0.09 0.00 93 1020.9
20260507004004 52 26 0.0 0.9 0.00 0.09 0.00 93 1020.9
20260507003504 52 26 0.0 0.9 0.00 0.09 0.00 93 1020.9
20260507003004 52 26 0.0 0.9 0.00 0.09 0.00 93 1020.9
20260507002504 52 26 0.0 0.0 0.00 0.09 0.00 93 1021.1
20260507002004 52 26 0.0 0.0 0.00 0.09 0.00 93 1021.0
20260507001504 52 26 0.0 0.0 0.00 0.09 0.00 93 1021.0
20260507001003 52 27 0.0 0.9 0.00 0.09 0.00 92 1021.1
20260507000004 52 26 0.0 0.0 0.00 0.09 0.00 92 1020.9
20260506235503 53 26 0.0 0.0 0.00 0.09 0.00 92 1021.2
20260506235004 53 26 0.0 0.9 0.00 0.09 0.00 92 1021.0
20260506234504 53 26 0.0 0.9 0.00 0.09 0.00 92 1021.0
20260506234003 52 26 0.0 0.0 0.00 0.09 0.00 92 1021.0
20260506233503 53 26 0.0 0.0 0.00 0.09 0.00 92 1020.9
20260506233004 53 26 0.0 0.9 0.00 0.09 0.00 91 1021.1
20260506232504 53 27 0.9 0.9 0.00 0.09 0.00 91 1021.0
20260506232004 53 27 0.0 0.9 0.00 0.09 0.00 91 1021.1
20260506231504 53 26 0.0 0.0 0.00 0.09 0.00 91 1021.1
20260506231003 53 26 0.0 0.9 0.00 0.09 0.00 91 1020.9
20260506225503 53 27 0.9 1.7 0.00 0.09 0.00 90 1020.9
20260506224503 53 27 0.0 0.9 0.00 0.09 0.00 90 1021.2
20260506224003 53 27 0.0 0.0 0.00 0.09 0.00 90 1021.3
20260506222004 54 27 0.9 0.9 0.00 0.09 0.00 89 1021.1
20260506221504 54 27 0.9 0.9 0.00 0.09 0.00 89 1021.1
20260506221004 54 27 0.0 0.9 0.00 0.09 0.00 89 1021.0
20260506220004 54 27 0.0 1.7 0.00 0.09 0.00 89 1021.2
20260506215504 54 27 0.0 0.9 0.00 0.09 0.09 89 1021.2
20260506215004 54 27 0.0 0.0 0.00 0.09 0.09 89 1021.1
20260506214504 54 27 0.0 0.9 0.00 0.09 0.09 89 1020.9
20260506214004 54 27 0.0 0.9 0.00 0.09 0.09 89 1021.0
20260506213504 54 27 0.0 0.9 0.00 0.09 0.09 89 1021.1
20260506212003 54 28 0.0 0.9 0.00 0.09 0.09 89 1020.9
20260506211503 54 28 0.9 0.9 0.00 0.09 0.09 89 1021.0
20260506211005 54 28 0.0 1.7 0.00 0.09 0.09 89 1020.9
20260506210504 54 28 0.0 0.9 0.00 0.09 0.09 90 1021.1
20260506204504 55 28 0.0 0.9 0.00 0.09 0.09 89 1020.5
20260506204004 55 28 0.0 0.9 0.00 0.09 0.09 89 1020.2
20260506203504 55 28 0.0 0.9 0.00 0.09 0.09 88 1020.1
20260506203004 55 28 0.0 0.9 0.00 0.09 0.09 88 1020.1
20260506202504 56 28 0.9 0.9 0.00 0.09 0.09 88 1019.9
20260506202004 55 28 0.9 0.9 0.00 0.09 0.09 88 1020.0
20260506201504 55 28 0.0 0.0 0.00 0.09 0.09 88 1019.8
20260506201004 55 28 0.9 1.7 0.00 0.09 0.09 88 1019.6
20260506200504 55 28 0.0 0.9 0.00 0.09 0.09 88 1019.6
20260506200004 55 28 0.0 0.0 0.00 0.09 0.09 88 1019.5
20260506195503 56 28 0.0 0.0 0.00 0.09 0.09 88 1019.6
20260506195003 56 28 0.0 0.9 0.00 0.09 0.09 88 1019.4
20260506194004 56 28 0.0 1.7 0.00 0.09 0.09 87 1019.3
20260506193504 56 28 0.0 1.7 0.00 0.09 0.09 86 1019.1
20260506192504 57 28 0.9 0.9 0.00 0.09 0.09 86 1019.1
20260506192004 57 28 0.9 2.6 0.00 0.09 0.09 85 1019.0
20260506191504 57 41 0.9 1.7 0.00 0.09 0.09 85 1019.2
20260506191004 57 49 0.9 2.6 0.00 0.09 0.09 85 1019.0
20260506190504 58 58 1.7 2.6 0.00 0.09 0.09 84 1018.9
20260506190003 58 52 1.7 4.3 0.00 0.09 0.09 83 1018.8
20260506185503 58 51 2.6 5.2 0.00 0.09 0.09 83 1018.7
20260506185004 58 38 2.6 5.2 0.00 0.09 0.09 83 1018.7
20260506184004 58 37 1.7 4.3 0.00 0.09 0.09 82 1018.7
20260506183503 59 50 2.6 4.3 0.00 0.09 0.09 81 1018.4
20260506183005 59 44 1.7 2.6 0.00 0.09 0.09 81 1018.3
20260506182504 59 29 1.7 4.3 0.00 0.09 0.09 81 1018.3
20260506181504 59 49 2.6 4.3 0.00 0.09 0.09 81 1018.4
20260506181004 59 50 2.6 5.2 0.00 0.09 0.09 80 1018.2
20260506180503 60 32 2.6 6.1 0.00 0.09 0.09 80 1018.2
20260506180005 60 43 2.6 5.2 0.00 0.09 0.09 79 1018.1
20260506175504 60 51 2.6 4.3 0.00 0.09 0.09 78 1017.9
20260506175004 61 40 2.6 6.1 0.00 0.09 0.09 77 1017.9
20260506174503 61 48 2.6 6.1 0.00 0.09 0.09 76 1018.0
20260506174004 61 48 1.7 2.6 0.00 0.09 0.09 76 1018.0
20260506173503 61 42 1.7 2.6 0.00 0.09 0.09 76 1018.0
20260506173004 61 37 0.0 2.6 0.00 0.09 0.09 76 1018.0
20260506172504 61 38 1.7 4.3 0.00 0.09 0.09 76 1017.9
20260506172004 61 42 2.6 5.2 0.00 0.09 0.09 76 1018.0
20260506171504 62 51 2.6 4.3 0.00 0.09 0.09 76 1018.0
20260506171003 62 48 2.6 4.3 0.00 0.09 0.09 74 1017.9
20260506170504 62 33 0.9 2.6 0.00 0.09 0.09 71 1018.0
20260506170004 62 46 1.7 2.6 0.00 0.09 0.09 71 1017.8
20260506165503 62 43 1.7 4.3 0.00 0.09 0.09 70 1018.0
20260506164503 61 70 0.9 2.6 0.00 0.09 0.09 69 1017.9
20260506164004 62 59 1.7 7.0 0.00 0.09 0.09 70 1017.9
20260506163004 61 85 1.7 5.2 0.00 0.09 0.09 71 1018.0
20260506162504 61 38 1.7 5.2 0.00 0.09 0.09 72 1018.1
20260506162003 61 38 0.9 5.2 0.00 0.09 0.09 72 1017.8
20260506161504 62 45 1.7 5.2 0.00 0.09 0.09 71 1017.8
20260506161004 62 32 1.7 2.6 0.00 0.09 0.09 69 1017.8
20260506160503 62 51 1.7 2.6 0.00 0.09 0.09 68 1017.7
20260506160004 61 54 1.7 5.2 0.00 0.09 0.09 68 1018.0
20260506155004 61 57 2.6 6.1 0.00 0.09 0.09 74 1018.0
20260506154503 62 60 3.5 5.2 0.00 0.09 0.09 73 1017.7
20260506154004 61 236 0.9 5.2 0.00 0.09 0.09 71 1017.7
20260506153504 61 212 2.6 4.3 0.00 0.09 0.09 71 1017.8
20260506153004 61 222 1.7 2.6 0.00 0.09 0.09 70 1017.8
20260506152504 61 251 0.9 1.7 0.00 0.09 0.09 69 1018.0
20260506152004 62 258 0.9 1.7 0.00 0.09 0.09 70 1017.8
20260506151503 62 231 0.0 2.6 0.00 0.09 0.09 70 1018.2
20260506151004 62 243 0.9 2.6 0.00 0.09 0.09 70 1018.0
20260506150504 62 56 1.7 4.3 0.00 0.09 0.09 69 1017.9
20260506150004 63 255 0.0 1.7 0.00 0.09 0.09 68 1017.7
20260506145504 63 46 0.9 2.6 0.00 0.09 0.09 68 1017.9
20260506145004 62 250 0.0 2.6 0.00 0.09 0.09 72 1017.8
20260506144503 61 349 1.7 5.2 0.00 0.09 0.09 73 1018.3
20260506144004 60 294 0.9 2.6 0.00 0.09 0.09 75 1018.3
20260506143004 59 50 2.6 5.2 0.00 0.09 0.09 76 1018.7
20260506142004 59 33 1.7 4.3 0.00 0.09 0.09 77 1018.9
20260506141503 59 48 1.7 4.3 0.00 0.09 0.09 78 1019.1
20260506141004 58 48 2.6 7.0 0.01 0.09 0.09 78 1019.0
20260506140504 59 74 0.9 2.6 0.03 0.09 0.09 80 1019.1
20260506140004 58 57 0.9 5.2 0.04 0.09 0.09 83 1019.2
20260506135504 56 17 2.6 5.2 0.06 0.09 0.09 86 1019.5
20260506135004 57 49 1.7 5.2 0.09 0.09 0.09 89 1019.5
20260506134504 57 39 2.6 6.1 0.09 0.09 0.09 90 1019.6
20260506134003 56 93 0.9 4.3 0.09 0.09 0.09 90 1019.6
20260506133504 56 47 1.7 4.3 0.09 0.09 0.09 91 1019.6
20260506133004 56 49 2.6 5.2 0.09 0.09 0.09 90 1019.8